2009 WU25
ephemeris date magn radius delta ra dec elong phase
Today4 Sep 202631.93.850 AU4.561 AU13h23m-06°20'40.5°9.8°
2009 WU25 - 2026-09-04
astro.vanbuitenen.nl


 
-1 year
-1 month
-1 day
Now
+1 day
+1 month
+1 year

The interactive orbit chart above shows the body's path through the solar system and its position at the given date. Green and blue lines are shown perpendicular to the ecliptic plane: Green if the path is above the ecliptic plane, blue if it is below. (Left-click and drag to rotate the view; Right-click and drag to move the view; Use scroll wheel to zoom in our out.)

The orbital elements of 2009 WU25 are:

            e (Eccentricity)                : 0.5980158
            a (Semimajor axis)              : 2.4095207
            i (Inclination)                 : 5.43231
            Ω (Longitude of ascending node) : 60.58430
            ω (Argument of perihelion)      : 331.33167
            M (Mean anomaly)                : 155.08470
            Epoch                           : 2026 Jun 09

            L (Longitude of perihelion)     : 32.02440
            B (Latitude of perihelion)      : -2.60308
            P (Orbital period in years)     : 3.74            
        

The light curve chart below shows the estimated development of the minor planet's magnitude.


The all-sky chart below shows the path of the minor planet over the same period as the light curve. The current position is marked yellow.





The following chart shows the path of the minor planet in the next few days. The field of view is optimized for (~10x50) binoculars and finderscopes.




Ephemerides:
Date       Time       RA (2000)    DEC (2000)    delta   radius  elong  phase   PA    magn
2026-09-04 00:00 UT   13 23 13.3   -06 20 25     4.561    3.850   40.5    9.8   109   31.9 
2026-09-04 04:54 UT   13 23 23.9   -06 21 37     4.563    3.850   40.4    9.8   109   31.9 
2026-09-05 00:00 UT   13 24 04.9   -06 26 15     4.571    3.850   39.8    9.6   109   31.9 
2026-09-06 00:00 UT   13 24 56.9   -06 32 05     4.580    3.850   39.1    9.5   109   31.9 
2026-09-07 00:00 UT   13 25 49.1   -06 37 55     4.590    3.850   38.3    9.3   109   31.9 
2026-09-08 00:00 UT   13 26 41.6   -06 43 47     4.599    3.850   37.6    9.2   109   31.9 
2026-09-09 00:00 UT   13 27 34.5   -06 49 40     4.609    3.850   36.9    9.0   109   31.9 
2026-09-10 00:00 UT   13 28 27.7   -06 55 33     4.618    3.850   36.1    8.9   109   31.9 
2026-09-11 00:00 UT   13 29 21.1   -07 01 27     4.627    3.850   35.4    8.7   109   31.8 
2026-09-12 00:00 UT   13 30 14.9   -07 07 21     4.635    3.850   34.7    8.6   108   31.8 
2026-09-13 00:00 UT   13 31 08.9   -07 13 16     4.644    3.850   33.9    8.4   108   31.8 
2026-09-14 00:00 UT   13 32 03.2   -07 19 12     4.652    3.850   33.2    8.2   108   31.8 
2026-09-15 00:00 UT   13 32 57.8   -07 25 08     4.661    3.850   32.5    8.1   108   31.8 
2026-09-16 00:00 UT   13 33 52.7   -07 31 05     4.669    3.850   31.8    7.9   108   31.8 
2026-09-17 00:00 UT   13 34 47.8   -07 37 02     4.677    3.850   31.0    7.7   108   31.8 
2026-09-18 00:00 UT   13 35 43.2   -07 42 59     4.684    3.850   30.3    7.6   108   31.8 
2026-09-19 00:00 UT   13 36 38.8   -07 48 57     4.692    3.850   29.6    7.4   108   31.8 
2026-09-20 00:00 UT   13 37 34.7   -07 54 55     4.699    3.850   28.9    7.2   107   31.8 
2026-09-21 00:00 UT   13 38 30.8   -08 00 53     4.706    3.850   28.1    7.1   107   31.8 
2026-09-22 00:00 UT   13 39 27.2   -08 06 51     4.713    3.850   27.4    6.9   107   31.8 
2026-09-23 00:00 UT   13 40 23.8   -08 12 50     4.720    3.850   26.7    6.7   107   31.8 
2026-09-24 00:00 UT   13 41 20.7   -08 18 48     4.726    3.850   26.0    6.6   107   31.8 
2026-09-25 00:00 UT   13 42 17.7   -08 24 47     4.733    3.849   25.3    6.4   107   31.8 
2026-09-26 00:00 UT   13 43 15.0   -08 30 46     4.739    3.849   24.5    6.2   107   31.8 
2026-09-27 00:00 UT   13 44 12.5   -08 36 45     4.745    3.849   23.8    6.0   106   31.8 
2026-09-28 00:00 UT   13 45 10.2   -08 42 44     4.751    3.849   23.1    5.9   106   31.8 
2026-09-29 00:00 UT   13 46 08.1   -08 48 43     4.756    3.849   22.4    5.7   106   31.8 
2026-09-30 00:00 UT   13 47 06.3   -08 54 41     4.762    3.848   21.7    5.5   106   31.8 
2026-10-01 00:00 UT   13 48 04.6   -09 00 40     4.767    3.848   20.9    5.3   106   31.8 
2026-10-02 00:00 UT   13 49 03.1   -09 06 39     4.772    3.848   20.2    5.2   105   31.7 
2026-10-03 00:00 UT   13 50 01.9   -09 12 37     4.777    3.848   19.5    5.0   105   31.7 
2026-10-04 00:00 UT   13 51 00.8   -09 18 35     4.781    3.847   18.8    4.8   105   31.7 


    Terminology:
            
    delta:  distance between minor planet and earth in AU
    radius: distance between minor planet and sun in AU
    magn:   magnitude (brightness) estimate    
    ra:     right ascension in hours (24h = 360deg)
    dec:    declination in degrees
    elong:  elongation in degrees (angle sun-earth-minor planet)    
    phase:  phase angle in degrees (angle sun-minor planet-earth)        
    AU:     Astronomical Unit (mean distance between earth and sun: 149597870.7 km
    

Orbital elements provided by the MPC (Minor Planet Center).
Calculations by a modified version of AAPlus, a C# implementation of the AA+ project by PJ Naughter from the algorithms presented in the book "Astronomical Algorithms" by Jean Meeus.
NGC2000 dso catalog and star labels from VizieR as provided by the Strasbourg astronomical Data Center.
Tycho2 catalog from the ESO archive.